Regional Weather Roundup
Issued by NWS San Diego, CA

Home | Current Version | Previous Version | Text Only | Print | Product List | Glossary On
Versions: 1 2 3 4 5 6 7 8 9 10 11 12 13 14 15 16 17 18 19 20 21 22 23 24 25 26 27 28
000
ASUS46 KSGX 231311
RWRSGX

SAN DIEGO HOURLY WEATHER ROUNDUP
NATIONAL WEATHER SERVICE SAN DIEGO CA
600 AM PDT SAT JUL 23 2016

NOTE: "FAIR" INDICATES FEW OR NO CLOUDS BELOW 12,000 FEET WITH NO
SIGNIFICANT WEATHER AND/OR OBSTRUCTIONS TO VISIBILITY.

CAZ042-043-060-061-PZZ750-775-231400-

GREATER SAN DIEGO AREA

CITY           SKY/WX    TMP DP  RH WIND       PRES   REMARKS
LINDBERGH FLD  PTCLDY    68  67  96 S3        29.81S
POINT LOMA       N/A     66  64  93 SE5         N/A
NATIONAL CITY    N/A    N/A N/A N/A CALM      29.81F
CHULA VISTA      N/A     69  68  94 W1        29.73S
IMPERIAL BEACH PTCLDY    64  60  87 SE3       29.80F
BROWN FIELD    FOG       68  66  93 CALM      29.81S VSB 1/4
MIRAMAR MCAS   PTCLDY    66  63  90 SE3       29.81S
MONTGOMERY FLD CLEAR     69  66  90 CALM      29.81F FOG

$$

NORTH SAN DIEGO COUNTY

CITY           SKY/WX    TMP DP  RH WIND       PRES   REMARKS
CAMP PENDLETON CLEAR     62  57  83 MISG      29.80S HAZE
OCEANSIDE AP   CLEAR     66  61  84 CALM      29.80S
OCEANSIDE HBR    N/A     68  65  91 CALM      29.83S
VISTA            N/A     64  59  84 CALM      29.78S
CARLSBAD       CLEAR     68  67  96 CALM      29.80S
DEL MAR          N/A     67  66  96 CALM      29.82S
LA JOLLA SCRIP   N/A     67  66  94 CALM      29.79S
FALLBROOK        N/A     69  64  85 CALM      29.79S
ESCONDIDO        N/A     70  54  56 CALM      29.82R
SAN MARCOS       N/A     68  58  68 CALM      29.77S
POWAY            N/A     64  54  68 CALM      29.80S

$$

EAST SAN DIEGO COUNTY

CITY           SKY/WX    TMP DP  RH WIND       PRES   REMARKS
RAMONA         CLEAR     62  44  51 CALM      29.85S
SANTEE LAKES     N/A     65  59  80 CALM      29.79S
LA MESA          N/A     67  65  92 CALM      29.71F
JAMUL            N/A     68  61  79 CALM      29.77S
DESCANSO N       N/A     70  31  24 E6        29.68S
CAMPO            N/A     64  38  38 NE7       29.92S

$$

ORANGE COUNTY AND THE LOS ANGELES BASIN

CITY           SKY/WX    TMP DP  RH WIND       PRES   REMARKS
JOHN WAYNE AP  PTCLDY    71  60  68 CALM      29.80S
LAKE FOREST FR   N/A     71  50  47 CALM      29.67S
HUNTINGTON BCH   N/A     66  64  93 CALM      29.82S
LOS ALAMITOS   FAIR      66  62  88 W1        29.80S
FULLERTON      CLEAR     71  62  73 CALM      29.80S
LONG BEACH     CLOUDY    70  66  87 CALM      29.81R
L.A. AP        MOCLDY    70  63  78 E7        29.81R
L.A. DOWNTOWN  CLOUDY    72  63  73 CALM      29.80S

$$

THE INLAND EMPIRE

CITY           SKY/WX    TMP DP  RH WIND       PRES   REMARKS
CORONA         CLEAR     65  57  75 CALM      29.83R
CHINO          CLEAR     67  58  72 CALM      29.84R
ONTARIO        PTCLDY    75  53  46 CALM      29.84R
SAN BERNARDINO FAIR      77  44  31 CALM      29.86R
RIVERSIDE AP   CLEAR     75  52  44 CALM      29.84R
MORENO VALLEY    N/A     78  49  36 CALM        N/A
MARCH ARB      CLEAR     68  41  36 CALM      29.87R
HORSETHIEF CYN   N/A     73  34  24 W3        29.81R
PERRIS           N/A     75  50  41 CALM      29.87S
HEMET EAST       N/A     77  35  21 CALM      29.69R
FRENCH VALLEY  FAIR      68  50  52 CALM      29.87R
TEMECULA         N/A     70  53  54 CALM      29.84R

$$

SAN BERNARDINO AND RIVERSIDE COUNTY MOUNTAINS

CITY           SKY/WX    TMP DP  RH WIND       PRES   REMARKS
BIG BEAR AP    CLEAR     50  28  43 CALM      30.29S
ANGELUS OAKS     N/A     67  35  30 CALM      29.69F
PINE COVE        N/A     73  32  22 CALM      29.79S

$$

SOUTHERN DESERT INCLUDING THE COACHELLA VALLEY

CITY           SKY/WX    TMP DP  RH WIND       PRES   REMARKS
PALM SPRINGS   CLEAR     89  40  17 N6        29.78R
THOUSAND PALMS   N/A     87  46  23 W1        29.73R
PALM DESERT      N/A     88  52  29 CALM        N/A
THERMAL        CLEAR     77  64  64 CALM      29.71R
BLYTHE         CLEAR     88  50  27 CALM      29.77R
IMPERIAL AP    CLEAR     89  70  53 SE21      29.75R
EL CENTRO NAS  CLEAR     87  71  58 SE21      29.77R
YUMA AZ        PTCLDY    89  73  59 S25G33    29.79  HX  97
MEXICALI       PTCLDY    86  73  66 SE15      29.79

$$

UPPER DESERT

CITY           SKY/WX    TMP DP  RH WIND       PRES   REMARKS
VICTORVILLE AP CLEAR     73  21  14 CALM      29.99S
HESPERIA         N/A     67  32  27 W3        29.92R
PALMDALE       CLEAR     68  28  22 S5        29.97R
LANCASTER      CLEAR     76  35  22 W10       29.95R
EDWARDS AFB    CLEAR     69  35  27 S9        29.92R
DAGGETT        CLEAR     75  30  19 W9        29.92R
29 PALMS N     CLEAR     81  22  11 W8        29.97R
NEEDLES        CLEAR     93  53  25 W8        29.80R

$$

REGIONAL REPORTS

CITY           SKY/WX    TMP DP  RH WIND       PRES   REMARKS
SANTA BARBARA  CLEAR     64  59  83 NE3       29.78R
SANDBERG       CLEAR     75  27  17 N21G30    30.12S
LAS VEGAS NV   PTCLDY    87  32  14 SW3       29.84R
PHOENIX AZ     MOCLDY    91  55  29 SE8       29.83R
TIJUANA        FOG       66  63  88 CALM      29.83  VSB 1/4
ENSENADA NW      N/A     69  32  25 CALM      29.77S

$$

OFFSHORE ISLANDS

CITY           SKY/WX    TMP DP  RH WIND       PRES   REMARKS
CATALINA ARPT  CLEAR     81  42  25 NW5       29.87S
SAN NICOLAS IS CLEAR     65  58  78 W17       29.81R

$$

MARINE AND OFFSHORE BUOY REPORTS

STATION/POSITION SKY/WX   TEMP    WIND        PRES    SWELL
                          AIR SEA DIR/SP/G            HT/PER/DIR
                          (F)     (DEG/KT/KT) (MB)    (FT/S/D)
TANNER BANKS               63 63  320/ 14/ 17 1009.6F   8/320/ 8
S CLEMENTE BASIN           67 69  310/  6/  6 1008.9R   7/180/16
SAN NICOLAS IS.               60                N/A     3/180/15
SO. S. ROSA ISLA           60 61  310/ 27/ 33 1008.8F   5/170/15
W. S. BARBARA CH           56 54  320/ 25/ 29 1009.9R   3/300/ 8
M. S. BARBARA CH                  240/ 12/ 16 1008.6F
S. MONICA BASIN            66 68   20/  8/  8 1009.2R   5/170/16
S PEDRO CHANNEL               69                N/A     2/170/15
OCEANSIDE OFFSHR              76                N/A     3/190/15
TORREY PINES OTR              76                N/A     3/190/15
LA JOLLA 1                 69 76  170/  5/  6 1009.0S
SAN DIEGO BAY                 78              1009.4F
POINT LOMA SOUTH              71                N/A     3/190/14

$$





USA.gov is the U.S. government's official web portal to all federal, state and local government web resources and services.